TOTEM BAY KUPREANOF ISLAND RAWS NEAR PE HADS current weather conditions

sailwx.info

Wind from 175 at 1 knots gusting 6

Air temperature 3.3° C
Dewpoint 2.0° C

Last reported at 2017-Nov-18 20:55 UTC.
Time now 2017-Nov-18 21:59 UTC

Location: N 56°18' W 132°51'.
View on Google Maps.

See reports from other nearby stations

  
Tides and Currents Weather Stations Pressure Air Temp Water Temp Dewpoint Dewpoint Depression Visibility Wind Speed Wind Dir Waves Ship Positions
date/time (UTC)wind fromknots sea level pressurealtimeterstation pressurevisibilityair tempwater tempwave heightnotes
2017-Nov-18 20:55 175 1 gusting 6 3.3
2017-Nov-18 19:55 139 0 gusting 6 3.3
2017-Nov-18 18:55 173 2 gusting 6 2.8
2017-Nov-18 17:55 156 2 gusting 12 2.2
2017-Nov-18 16:55 161 5 gusting 11 2.2
2017-Nov-18 15:55 160 4 gusting 10 1.7
2017-Nov-18 14:55 192 1 gusting 7 1.7
2017-Nov-18 13:55 211 2 gusting 8 1.7
2017-Nov-18 12:55 205 4 gusting 11 1.1
2017-Nov-18 11:55 206 8 gusting 14 1.1
2017-Nov-18 10:55 211 9 gusting 19 1.7
2017-Nov-18 09:55 200 12 gusting 21 2.2
2017-Nov-18 08:55 192 10 gusting 23 2.2
2017-Nov-18 07:55 189 12 gusting 22 2.2
2017-Nov-18 06:55 185 10 gusting 23 2.2
2017-Nov-18 05:55 175 11 gusting 23 1.7
2017-Nov-18 04:55 170 11 gusting 28 1.1
2017-Nov-18 03:55 176 12 gusting 23 1.7
2017-Nov-18 02:55 165 7 gusting 24 1.7
2017-Nov-18 01:55 175 10 gusting 31 1.7
2017-Nov-18 00:55 170 6 gusting 19 1.1
2017-Nov-17 23:55 153 5 gusting 18 1.1
2017-Nov-17 22:55 170 6 gusting 22 1.1
2017-Nov-17 21:55 143 9 gusting 22 1.1
2017-Nov-17 20:55 150 9 gusting 24 0.6
2017-Nov-17 19:55 164 6 gusting 22 0.6
2017-Nov-17 18:55 162 6 gusting 19 -0.0
2017-Nov-17 17:55 130 5 gusting 13 -0.6
2017-Nov-17 16:55 133 3 gusting 13 -1.7
2017-Nov-17 15:55 085 2 gusting 13 -2.2
2017-Nov-17 14:55 088 5 gusting 11 -2.8
2017-Nov-17 13:55 099 6 gusting 11 -3.3
2017-Nov-17 12:55 092 2 gusting 9 -3.9
2017-Nov-17 11:55 100 5 gusting 10 -3.3
2017-Nov-17 10:55 097 2 gusting 10 -3.9
2017-Nov-17 09:55 104 5 gusting 10 -4.4
2017-Nov-17 08:55 083 2 gusting 7 -4.4
2017-Nov-17 07:55 067 3 gusting 5 -5.0
2017-Nov-17 06:55 052 3 gusting 7 -5.0
2017-Nov-17 05:55 061 5 gusting 8 -6.1
2017-Nov-17 04:55 065 4 gusting 8 -6.1
2017-Nov-17 03:55 062 5 gusting 10 -6.1
2017-Nov-17 02:55 075 6 gusting 9 -6.1
2017-Nov-17 01:55 086 6 gusting 12 -6.1
2017-Nov-17 00:55 088 6 gusting 10 -6.1
2017-Nov-16 23:55 081 6 gusting 13 -4.4
2017-Nov-16 22:55 071 6 gusting 10 -3.3
2017-Nov-16 21:55 066 3 gusting 9 -2.8